ECP45K EBLG-CYEG

Flight info

Callsign ECP45K
Flight time N/A
Altitude 36000
Route BUB L608 DENUT L610 GILDA M14 STOAT L613 MOGLI UP6 TUPEM DCT FYNER DCT EVBEV/N0443F380 DCT BALIX/M079F380 DCT 62N018W 65N028W 67N041W 68N055W/N0458F380 67N069W 66N083W 63N094W 60N103W DCT YMM Q856 RESAX RESAX1
Aircraft A21N/M-SDE3FGHIRWY/LB1

Departure

Time 2026-04-29 10:33
Airport Liège Airport (EBLG)

Arrival

Time N/A
Airport Edmonton International Airport (CYEG)
Time Latitude Longitude Altitude Speed Heading
2026-04-29 10:18 50.64379 5.45998 605 ft 0 kts 135°
2026-04-29 10:21 50.64379 5.45999 605 ft 0 kts 135°
2026-04-29 10:22 50.64379 5.45998 605 ft 0 kts 135°
2026-04-29 10:23 50.64381 5.45995 605 ft 2 kts 135°
2026-04-29 10:23 50.64392 5.45979 604 ft 2 kts 136°
2026-04-29 10:23 50.64402 5.45962 603 ft 2 kts 135°
2026-04-29 10:24 50.64413 5.45946 602 ft 2 kts 135°
2026-04-29 10:24 50.64424 5.45929 601 ft 2 kts 135°
2026-04-29 10:24 50.64437 5.45917 600 ft 2 kts 169°
2026-04-29 10:24 50.64452 5.45916 600 ft 2 kts 193°
2026-04-29 10:25 50.64465 5.45926 600 ft 1 kts 219°
2026-04-29 10:25 50.64469 5.45933 600 ft 1 kts 227°
2026-04-29 10:25 50.64471 5.45936 601 ft 0 kts 225°
2026-04-29 10:27 50.64471 5.45935 600 ft 0 kts 225°
2026-04-29 10:27 50.64456 5.45911 600 ft 5 kts 225°
2026-04-29 10:27 50.64409 5.45837 600 ft 13 kts 224°
2026-04-29 10:28 50.64333 5.45715 598 ft 14 kts 224°
2026-04-29 10:28 50.64259 5.45599 597 ft 15 kts 225°
2026-04-29 10:28 50.64181 5.45475 595 ft 17 kts 225°
2026-04-29 10:28 50.64096 5.45338 596 ft 17 kts 225°
2026-04-29 10:29 50.64014 5.45212 598 ft 15 kts 225°
2026-04-29 10:29 50.63942 5.45096 600 ft 14 kts 224°
2026-04-29 10:29 50.63868 5.44979 601 ft 14 kts 225°
2026-04-29 10:29 50.63795 5.44864 601 ft 15 kts 225°
2026-04-29 10:30 50.63717 5.44739 602 ft 16 kts 225°
2026-04-29 10:30 50.63636 5.44612 603 ft 16 kts 225°
2026-04-29 10:30 50.63544 5.44467 604 ft 20 kts 225°
2026-04-29 10:30 50.63449 5.44315 607 ft 18 kts 223°
2026-04-29 10:31 50.63361 5.44176 609 ft 17 kts 225°
2026-04-29 10:31 50.63280 5.44048 612 ft 15 kts 225°
2026-04-29 10:31 50.63222 5.43955 615 ft 9 kts 225°
2026-04-29 10:31 50.63199 5.43871 618 ft 8 kts 288°
2026-04-29 10:32 50.63248 5.43837 617 ft 10 kts 11°
2026-04-29 10:32 50.63335 5.43867 615 ft 13 kts
2026-04-29 10:32 50.63376 5.43859 614 ft 6 kts
2026-04-29 10:32 50.63460 5.43970 610 ft 40 kts 43°
2026-04-29 10:33 50.63862 5.44604 595 ft 118 kts 45°
2026-04-29 10:33 50.64581 5.45738 683 ft 168 kts 45°
2026-04-29 10:33 50.65419 5.47064 1405 ft 172 kts 46°
2026-04-29 10:33 50.66207 5.48340 2446 ft 163 kts 45°
2026-04-29 10:34 50.67008 5.49613 3111 ft 174 kts 45°
2026-04-29 10:34 50.67895 5.51020 3717 ft 190 kts 45°
2026-04-29 10:34 50.68856 5.52546 4329 ft 206 kts 46°
2026-04-29 10:34 50.69910 5.54226 4884 ft 228 kts 46°
2026-04-29 10:35 50.71051 5.55985 5828 ft 233 kts 41°
2026-04-29 10:35 50.72510 5.57038 6713 ft 241 kts 11°
2026-04-29 10:35 50.74181 5.56765 7487 ft 255 kts 341°
2026-04-29 10:35 50.75619 5.55083 8213 ft 269 kts 308°
2026-04-29 10:36 50.76366 5.52374 8940 ft 276 kts 285°
2026-04-29 10:36 50.76832 5.49438 9704 ft 280 kts 285°
2026-04-29 10:36 50.77307 5.46474 10460 ft 282 kts 285°
2026-04-29 10:36 50.77810 5.43465 11193 ft 287 kts 285°
2026-04-29 10:37 50.78271 5.40381 11843 ft 294 kts 284°
2026-04-29 10:37 50.78729 5.37178 12280 ft 311 kts 284°
2026-04-29 10:37 50.79219 5.33732 12706 ft 329 kts 284°
2026-04-29 10:37 50.79727 5.30147 13108 ft 346 kts 284°
2026-04-29 10:38 50.80257 5.26403 13677 ft 356 kts 284°
2026-04-29 10:38 50.80795 5.22585 14443 ft 358 kts 284°
2026-04-29 10:38 50.81335 5.18743 15186 ft 361 kts 284°
2026-04-29 10:38 50.81878 5.14891 15869 ft 364 kts 284°
2026-04-29 10:39 50.82428 5.10971 16517 ft 368 kts 284°
2026-04-29 10:39 50.82974 5.07049 17174 ft 372 kts 284°
2026-04-29 10:39 50.83533 5.03029 17846 ft 375 kts 284°
2026-04-29 10:39 50.84086 4.99034 18496 ft 378 kts 284°
2026-04-29 10:40 50.84647 4.94978 19130 ft 381 kts 284°
2026-04-29 10:40 50.85220 4.90841 19751 ft 385 kts 285°
2026-04-29 10:40 50.85787 4.86724 20341 ft 388 kts 285°
2026-04-29 10:40 50.86356 4.82584 20908 ft 392 kts 285°
2026-04-29 10:41 50.86940 4.78322 21485 ft 395 kts 285°
2026-04-29 10:41 50.87521 4.74053 22031 ft 399 kts 285°
2026-04-29 10:41 50.88098 4.69801 22556 ft 403 kts 285°
2026-04-29 10:41 50.88687 4.65437 23078 ft 407 kts 285°
2026-04-29 10:42 50.89281 4.61030 23591 ft 410 kts 285°
2026-04-29 10:42 50.89963 4.56623 24064 ft 413 kts 290°
2026-04-29 10:42 50.90964 4.52398 24535 ft 414 kts 297°
2026-04-29 10:42 50.92297 4.48373 25010 ft 415 kts 303°
2026-04-29 10:43 50.93785 4.44466 25473 ft 418 kts 305°
2026-04-29 10:43 50.95314 4.40542 25933 ft 421 kts 305°
2026-04-29 10:43 50.96862 4.36561 26401 ft 424 kts 305°
2026-04-29 10:43 50.98412 4.32552 26860 ft 427 kts 304°
2026-04-29 10:44 50.99956 4.28536 27299 ft 430 kts 304°
2026-04-29 10:44 51.01509 4.24478 27726 ft 432 kts 304°
2026-04-29 10:44 51.02551 4.21746 28007 ft 434 kts 304°
2026-04-29 10:44 51.04636 4.16268 28558 ft 437 kts 304°
2026-04-29 10:45 51.05680 4.13520 28825 ft 438 kts 304°
2026-04-29 10:45 51.07790 4.07955 29336 ft 442 kts 304°
2026-04-29 10:45 51.09378 4.03759 29725 ft 444 kts 304°
2026-04-29 10:45 51.10961 3.99570 30126 ft 446 kts 304°
2026-04-29 10:46 51.12565 3.95315 30521 ft 448 kts 304°
2026-04-29 10:46 51.14169 3.91055 30882 ft 451 kts 304°
2026-04-29 10:46 51.15781 3.86765 31228 ft 453 kts 304°
2026-04-29 10:46 51.17390 3.82475 31570 ft 455 kts 304°
2026-04-29 10:47 51.19009 3.78152 31986 ft 455 kts 304°
2026-04-29 10:47 51.20559 3.73749 32397 ft 455 kts 301°
2026-04-29 10:47 51.21943 3.69227 32783 ft 456 kts 297°
2026-04-29 10:47 51.23162 3.64560 33152 ft 457 kts 294°
2026-04-29 10:48 51.23868 3.61424 33385 ft 458 kts 292°
2026-04-29 10:48 51.25058 3.54943 33862 ft 459 kts 287°
2026-04-29 10:48 51.25541 3.51600 34104 ft 460 kts 285°
2026-04-29 10:48 51.26406 3.45016 34574 ft 459 kts 285°
2026-04-29 10:49 51.27055 3.40032 34897 ft 460 kts 285°
2026-04-29 10:49 51.27702 3.35047 35158 ft 461 kts 285°
2026-04-29 10:49 51.28352 3.29990 35405 ft 462 kts 284°
2026-04-29 10:49 51.28991 3.25011 35649 ft 463 kts 284°
2026-04-29 10:50 51.29632 3.19986 35893 ft 464 kts 284°
2026-04-29 10:50 51.30062 3.16611 36002 ft 464 kts 284°
2026-04-29 10:50 51.30705 3.11548 36163 ft 465 kts 284°
2026-04-29 10:50 51.31343 3.06503 36286 ft 466 kts 284°
2026-04-29 10:51 51.32190 2.99781 36302 ft 466 kts 284°
2026-04-29 10:51 51.33250 2.91312 36300 ft 465 kts 283°
2026-04-29 10:52 51.34503 2.81212 36297 ft 465 kts 283°
2026-04-29 10:52 51.35760 2.71049 36282 ft 465 kts 283°
2026-04-29 10:53 51.37227 2.59199 36277 ft 466 kts 283°
2026-04-29 10:53 51.38476 2.48983 36279 ft 467 kts 283°
2026-04-29 10:54 51.39713 2.38756 36280 ft 469 kts 283°
2026-04-29 10:54 51.40739 2.30213 36281 ft 470 kts 283°
2026-04-29 10:55 51.41978 2.19972 36282 ft 472 kts 283°
2026-04-29 10:55 51.43623 2.09907 36280 ft 469 kts 296°
2026-04-29 10:56 51.46559 2.00611 36284 ft 468 kts 302°
2026-04-29 10:56 51.49824 1.91588 36282 ft 468 kts 305°
2026-04-29 10:57 51.53246 1.82733 36282 ft 469 kts 306°
2026-04-29 10:57 51.56674 1.73828 36287 ft 471 kts 305°
2026-04-29 10:58 51.60084 1.64898 36289 ft 472 kts 305°
2026-04-29 10:58 51.63509 1.55899 36295 ft 473 kts 305°
2026-04-29 10:59 51.66905 1.46927 36308 ft 473 kts 305°
2026-04-29 10:59 51.70304 1.37910 36320 ft 472 kts 305°
2026-04-29 11:00 51.73711 1.28850 36326 ft 472 kts 304°
2026-04-29 11:00 51.77076 1.19868 36332 ft 472 kts 304°
2026-04-29 11:01 51.80465 1.10806 36338 ft 472 kts 304°
2026-04-29 11:01 51.83833 1.01758 36345 ft 473 kts 304°
2026-04-29 11:02 51.87194 0.92683 36348 ft 474 kts 304°
2026-04-29 11:02 51.90569 0.83547 36353 ft 475 kts 304°
2026-04-29 11:03 51.93946 0.74374 36355 ft 476 kts 304°
2026-04-29 11:03 51.97322 0.65190 36358 ft 476 kts 304°
2026-04-29 11:04 52.00695 0.55972 36360 ft 477 kts 304°
2026-04-29 11:04 52.04066 0.46707 36372 ft 478 kts 304°
2026-04-29 11:05 52.07427 0.37436 36379 ft 479 kts 304°
2026-04-29 11:05 52.10795 0.28121 36363 ft 480 kts 304°
2026-04-29 11:06 52.14163 0.18762 36359 ft 481 kts 304°
2026-04-29 11:06 52.17529 0.09396 36359 ft 481 kts 304°
2026-04-29 11:07 52.20970 0.00084 36359 ft 481 kts 305°
2026-04-29 11:07 52.24394 -0.09198 36323 ft 482 kts 305°
2026-04-29 11:08 52.27826 -0.18582 36312 ft 483 kts 305°
2026-04-29 11:08 52.31519 -0.27720 36347 ft 480 kts 311°
2026-04-29 11:09 52.35764 -0.36006 36360 ft 478 kts 317°
2026-04-29 11:09 52.40206 -0.44082 36363 ft 478 kts 317°
2026-04-29 11:10 52.44614 -0.52146 36367 ft 478 kts 317°
2026-04-29 11:10 52.49033 -0.60300 36369 ft 478 kts 317°
2026-04-29 11:11 52.53421 -0.68433 36371 ft 478 kts 316°
2026-04-29 11:11 52.57803 -0.76590 36376 ft 478 kts 316°
2026-04-29 11:12 52.62198 -0.84798 36377 ft 478 kts 316°
2026-04-29 11:12 52.66567 -0.92988 36380 ft 478 kts 316°
2026-04-29 11:13 52.70932 -1.01199 36384 ft 478 kts 316°
2026-04-29 11:13 52.75409 -1.09224 36388 ft 475 kts 321°
2026-04-29 11:14 52.80154 -1.16697 36389 ft 475 kts 322°
2026-04-29 11:14 52.84941 -1.24167 36391 ft 475 kts 322°
2026-04-29 11:15 52.89739 -1.31712 36391 ft 475 kts 322°
2026-04-29 11:15 52.94480 -1.39208 36391 ft 475 kts 322°
2026-04-29 11:16 52.99226 -1.46746 36389 ft 475 kts 322°
2026-04-29 11:16 53.03991 -1.54340 36384 ft 474 kts 322°
2026-04-29 11:17 53.08742 -1.61926 36375 ft 474 kts 322°
2026-04-29 11:17 53.13451 -1.69460 36363 ft 473 kts 321°
2026-04-29 11:18 53.18198 -1.77094 36352 ft 473 kts 321°
2026-04-29 11:18 53.22738 -1.84912 36344 ft 475 kts 315°
2026-04-29 11:19 53.26751 -1.93715 36345 ft 478 kts 308°
2026-04-29 11:19 53.30297 -2.03001 36354 ft 477 kts 306°
2026-04-29 11:20 53.33809 -2.12362 36365 ft 476 kts 306°
2026-04-29 11:20 53.37333 -2.21726 36375 ft 476 kts 306°
2026-04-29 11:21 53.40843 -2.31058 36393 ft 476 kts 307°
2026-04-29 11:21 53.44355 -2.40422 36409 ft 476 kts 307°
2026-04-29 11:22 53.47842 -2.49755 36414 ft 476 kts 307°
2026-04-29 11:22 53.51344 -2.59168 36412 ft 475 kts 307°
2026-04-29 11:23 53.54819 -2.68549 36408 ft 475 kts 306°
2026-04-29 11:23 53.58301 -2.77975 36404 ft 475 kts 306°
2026-04-29 11:24 53.61765 -2.87371 36402 ft 475 kts 306°
2026-04-29 11:24 53.65237 -2.96838 36403 ft 475 kts 306°
2026-04-29 11:25 53.68687 -3.06293 36406 ft 476 kts 306°
2026-04-29 11:25 53.72124 -3.15755 36409 ft 476 kts 306°
2026-04-29 11:26 53.77290 -3.30024 36411 ft 476 kts 306°
2026-04-29 11:26 53.80878 -3.39359 36410 ft 472 kts 313°
2026-04-29 11:27 53.85413 -3.47221 36412 ft 465 kts 327°
2026-04-29 11:27 53.90785 -3.53066 36412 ft 457 kts 340°
2026-04-29 11:28 53.96589 -3.57267 36412 ft 454 kts 345°
2026-04-29 11:28 54.02405 -3.61255 36410 ft 454 kts 345°
2026-04-29 11:29 54.08247 -3.65319 36410 ft 455 kts 343°
2026-04-29 11:29 54.14079 -3.69418 36411 ft 455 kts 343°
2026-04-29 11:30 54.19893 -3.73529 36410 ft 454 kts 343°
2026-04-29 11:30 54.25730 -3.77668 36414 ft 454 kts 343°
2026-04-29 11:31 54.31540 -3.81804 36420 ft 454 kts 343°
2026-04-29 11:31 54.37317 -3.85929 36424 ft 454 kts 343°
2026-04-29 11:32 54.43122 -3.90087 36425 ft 454 kts 343°
2026-04-29 11:32 54.48924 -3.94264 36427 ft 454 kts 343°
2026-04-29 11:33 54.54736 -3.98457 36428 ft 454 kts 343°
2026-04-29 11:33 54.60535 -4.02651 36430 ft 453 kts 342°
2026-04-29 11:34 54.66340 -4.06862 36431 ft 452 kts 342°
2026-04-29 11:34 54.72101 -4.11054 36432 ft 453 kts 342°
2026-04-29 11:35 54.77902 -4.15289 36435 ft 452 kts 342°
2026-04-29 11:35 54.83678 -4.19519 36437 ft 452 kts 342°
2026-04-29 11:36 54.89432 -4.23744 36440 ft 451 kts 342°
2026-04-29 11:36 54.95180 -4.27979 36444 ft 451 kts 342°
2026-04-29 11:37 55.00963 -4.32254 36448 ft 450 kts 342°
2026-04-29 11:37 55.06682 -4.36493 36448 ft 450 kts 342°
2026-04-29 11:38 55.12416 -4.40757 36445 ft 449 kts 342°
2026-04-29 11:38 55.18147 -4.45033 36446 ft 449 kts 341°
2026-04-29 11:39 55.23877 -4.49322 36450 ft 448 kts 341°
2026-04-29 11:39 55.29580 -4.53605 36459 ft 448 kts 341°
2026-04-29 11:40 55.35297 -4.57912 36468 ft 448 kts 341°
2026-04-29 11:40 55.40988 -4.62212 36472 ft 447 kts 341°
2026-04-29 11:41 55.46694 -4.66538 36471 ft 447 kts 340°
2026-04-29 11:41 55.52384 -4.70864 36469 ft 447 kts 340°
2026-04-29 11:42 55.58074 -4.75206 36468 ft 447 kts 340°
2026-04-29 11:42 55.63748 -4.79549 36468 ft 447 kts 340°
2026-04-29 11:43 55.69429 -4.83911 36470 ft 447 kts 340°
2026-04-29 11:43 55.75120 -4.88296 36472 ft 446 kts 340°
2026-04-29 11:44 55.80785 -4.92676 36473 ft 446 kts 340°
2026-04-29 11:44 55.86458 -4.97077 36475 ft 446 kts 340°
2026-04-29 11:45 55.92102 -5.01473 36477 ft 446 kts 340°
2026-04-29 11:45 55.97757 -5.05892 36478 ft 446 kts 340°
2026-04-29 11:46 56.03363 -5.10721 36483 ft 448 kts 334°
2026-04-29 11:46 56.08629 -5.16670 36487 ft 450 kts 327°
2026-04-29 11:47 56.13569 -5.23434 36481 ft 449 kts 324°
2026-04-29 11:47 56.18456 -5.30313 36474 ft 448 kts 324°
2026-04-29 11:48 56.23337 -5.37184 36470 ft 448 kts 324°
2026-04-29 11:48 56.28228 -5.44080 36467 ft 448 kts 324°
2026-04-29 11:49 56.33098 -5.50962 36466 ft 448 kts 324°
2026-04-29 11:49 56.37993 -5.57896 36466 ft 448 kts 324°
2026-04-29 11:50 56.42880 -5.64842 36467 ft 448 kts 324°
2026-04-29 11:50 56.47754 -5.71793 36467 ft 448 kts 323°
2026-04-29 11:51 56.52628 -5.78769 36468 ft 449 kts 323°
2026-04-29 11:51 56.57511 -5.85781 36467 ft 448 kts 323°
2026-04-29 11:52 56.62374 -5.92788 36467 ft 448 kts 323°
2026-04-29 11:52 56.67238 -5.99821 36467 ft 448 kts 323°
2026-04-29 11:53 56.72081 -6.06846 36468 ft 448 kts 323°
2026-04-29 11:53 56.76930 -6.13903 36469 ft 448 kts 323°
2026-04-29 11:54 56.81776 -6.20979 36470 ft 448 kts 323°
2026-04-29 11:54 56.86631 -6.28097 36471 ft 447 kts 323°
2026-04-29 11:55 56.91449 -6.35181 36472 ft 447 kts 323°
2026-04-29 11:55 56.96271 -6.42298 36472 ft 447 kts 322°
2026-04-29 11:56 57.01092 -6.49437 36472 ft 446 kts 322°
2026-04-29 11:56 57.05876 -6.56545 36471 ft 446 kts 322°
2026-04-29 11:57 57.10685 -6.63715 36471 ft 446 kts 322°
2026-04-29 11:57 57.15470 -6.70875 36470 ft 445 kts 321°
2026-04-29 11:58 57.20263 -6.78071 36470 ft 445 kts 321°
2026-04-29 11:58 57.25039 -6.85266 36470 ft 445 kts 321°
2026-04-29 11:59 57.29810 -6.92479 36469 ft 445 kts 321°
2026-04-29 11:59 57.34589 -6.99729 36469 ft 445 kts 321°
2026-04-29 12:00 57.39334 -7.06956 36468 ft 445 kts 321°
2026-04-29 12:00 57.44102 -7.14242 36468 ft 444 kts 321°
2026-04-29 12:01 57.49645 -7.22741 36469 ft 444 kts 321°
2026-04-29 12:01 57.53597 -7.28827 36469 ft 445 kts 320°
2026-04-29 12:02 57.58322 -7.36124 36470 ft 445 kts 320°
2026-04-29 12:02 57.63051 -7.43455 36470 ft 444 kts 320°
2026-04-29 12:03 57.67796 -7.50837 36470 ft 444 kts 320°
2026-04-29 12:03 57.72515 -7.58201 36470 ft 444 kts 320°